Regional Weather Roundup
Issued by NWS Sterling, VA

Home | Current Version | Previous Version | Graphics & Text | Print | Product List | Glossary On
Versions: 1 2 3 4 5 6 7 8 9 10 11 12 13 14 15 16 17 18 19 20 21 22 23 24 25 26 27 28 29 30 31 32 33 34 35 36 37 38 39 40 41 42 43 44 45 46 47 48 49 50
000
ASUS41 KLWX 031010
RWRLWX

REGIONAL WEATHER ROUNDUP
NATIONAL WEATHER SERVICE BALTIMORE MD/WASHINGTON DC
600 AM EDT FRI JUL 03 2015

Note: "FAIR" indicates few or no clouds below 12,000 feet
with no significant weather and/or obstructions to visibility.
 TC=TEMPERATURE CELSIUS

 * =Non NWS site. Station does not report precipitation (e.g. rain,
    snow, etc.), thunder, or fog.

DCZ001-MDZ009-015-VAZ040>042-051-053>054-031100-
WASHINGTON METRO

CITY           SKY/WX    TMP DP  RH WIND       PRES   REMARKS
WASHINGTON NAT FOG       66  64  94 CALM      29.95R VSB 1/2
DULLES         PTCLDY    59  57  94 CALM      29.95R FOG
ANDREWS AFB    CLEAR     61  61 100 CALM      29.94  FOG
FT BELVOIR     PTCLDY    60  60  97 NW1       29.94S FOG
QUANTICO       PTCLDY    64  61  90 NW5       29.94
COLLEGE PARK*  PTCLDY    61  61 100 CALM      29.94R
LEESBURG*      PTCLDY    61  61 100 CALM      29.96R FOG
MANASSAS*      CLOUDY    63  61  94 CALM      29.95R VSB<1/4
GAITHERSBURG*  CLEAR     61  57  88 CALM      29.98S

$$

MDZ006>007-011-014-031100-
BALTIMORE METRO

CITY           SKY/WX    TMP DP  RH WIND       PRES   REMARKS
BWI AIRPORT    PTCLDY    62  61  96 CALM      29.94R FOG
MD SCIENCE CTR   N/A     67  62  84 MISG      29.95R
MARTIN STATE   CLEAR     63  63 100 CALM      29.95R
ANNAPOLIS      CLEAR     66  64  93 CALM      29.93R FOG
FORT MEADE*      N/A     57  55  94 CALM      29.97R

$$

MDZ012-015-019>023-031100-
MARYLAND EASTERN SHORE

CITY           SKY/WX    TMP DP  RH WIND       PRES   REMARKS
OCEAN CITY     FOG       61  60  97 N3        29.93R VSB 1/2
SALISBURY      PTCLDY    61  60  97 CALM      29.94R FOG
BAY BRIDGE AP*   N/A     66  64  94 CALM      29.94S FOG
CAMBRIDGE*     CLEAR     61  59  94 CALM      29.93R
EASTON*        FOG       63  63 100 CALM      29.97R VSB 3/8

$$

MDZ017>025-031100-
SOUTHERN MARYLAND

CITY           SKY/WX    TMP DP  RH WIND       PRES   REMARKS
PATUXENT RIVER CLEAR     65  64  97 CALM      29.93R FOG
ST INIGOES     CLEAR     64  62  93 CALM      29.93R FOG
LEONARDTOWN*   CLEAR     61  61 100 CALM      29.95R

$$

MDZ003>005-031100-
NORTH CENTRAL MARYLAND

CITY           SKY/WX    TMP DP  RH WIND       PRES   REMARKS
FREDERICK*     FOG       63  63 100 NE3       29.97S VSB<1/4
HAGERSTOWN APT CLOUDY    65  62  90 CALM      29.95S FOG
WESTMINSTER*   FOG       59  57  94 CALM      29.96R VSB 1/2

$$

MDZ501>502-031100-
WESTERN MARYLAND

CITY           SKY/WX    TMP DP  RH WIND       PRES   REMARKS
OAKLAND*       MOCLDY    59 N/A N/A CALM      30.02S
CUMBERLAND*    CLOUDY    55  55 100 CALM      30.02R VSB<1/4

$$

VAZ025>031-031100-
SHENANDOAH VALLEY

CITY           SKY/WX    TMP DP  RH WIND       PRES   REMARKS
WINCHESTER*    FOG       61  61 100 CALM      29.96R VSB<1/4
FRONT ROYAL*   FAIR      61  59  94 CALM      29.95R
LURAY*         FOG       61  61 100 CALM      29.98R VSB<1/4
NEW MARKET*    CLOUDY    61  61 100 CALM      29.96R VSB<1/4
STAUNTON*      FOG       65  63  95 CALM      30.00R VSB 1/2
WAYNESBORO*    CLOUDY    61  61 100 CALM      29.99R

$$

WVZ021-048>050-054>055-031100-
EASTERN WEST VIRGINIA PANHANDLE

CITY           SKY/WX    TMP DP  RH WIND       PRES   REMARKS
MARTINSBURG    FOG       63  62  97 SE3       29.96R VSB 1/4
PETERSBURG*    CLOUDY    55  53  92 CALM      29.99S FOG

$$

VAZ036>039-050-031100-
CENTRAL FOOTHILLS

CITY           SKY/WX    TMP DP  RH WIND       PRES   REMARKS
CHARLOTTESVILL CLOUDY    63  62  97 SW3       29.95R FOG
CULPEPER*      FOG       58  58 100 CALM      29.96R VSB 1/4
ORANGE*          N/A     63  61  94 CALM      29.96R FOG
GORDONSVILLE*  FAIR      61  61 100 CALM      29.95R FOG
WARRENTON*     FOG       61  61 100 CALM      29.95R VSB<1/4

$$

VAZ055>057-031100-
NORTH AND CENTRAL PIEDMONT

CITY           SKY/WX    TMP DP  RH WIND       PRES   REMARKS
FREDERICKSBRG* PTCLDY    64  64 100 CALM      29.94R FOG
STAFFORD*      PTCLDY    58  57  97 CALM      29.98R FOG

$$

NCZ024-NYZ072-PAZ021-071-VAZ022-071-031100-
OTHER REGIONAL OBSERVATIONS

CITY           SKY/WX    TMP DP  RH WIND       PRES   REMARKS
NEW YORK CITY  CLEAR     66  51  58 VRB3      29.97R
PHILADELPHIA   PTCLDY    68  61  78 N5        29.94R
PITTSBURGH     PTCLDY    57  53  86 CALM      29.97R
ROANOKE        CLOUDY    68  66  93 NE3       29.98R FOG
RICHMOND       MOCLDY    67  65  93 CALM      29.94R FOG
RALEIGH        CLOUDY    72  70  94 CALM      29.95S FOG

$$

ANZ530>537-031100-
MARINE OBSERVATIONS

STATION/POSITION TIME  TEMP    WIND        PRES
                       AIR SEA DIR/SP/G
                 (UTC) (F)     (DEG/KT/KT) (MB)
THOMAS PT LIGHT  1000   68 76  330/  5/  6 1014.3R
BALT KEY BRIDGE  0900   69     290/  4/  5 1013.1S
COVE POINT       0900   69     320/  7/  9 1013.7R
LEWISETTA        0900   69 79  330/  4/  4 1012.9R
SOLOMONS ISLAND  0900      79                N/A
PINEY POINT      0900          360/  5/  6   N/A

$$



USA.gov is the U.S. government's official web portal to all federal, state and local government web resources and services.